Weather History for Barksdale AFB, LA

Change the Weather History Date:

Saturday, October 26, 2013

  Actual Average Record
Temperature  
Mean Temperature 58 °F -  
Max Temperature 75 °F 72 °F 86 °F (2004)
Min Temperature 42 °F 52 °F 37 °F (2005)
Degree Days  
Heating Degree Days 6    
Growing Degree Days 8 (Base 50)    
Moisture  
Dew Point 46 °F    
Average Humidity 71    
Maximum Humidity 87    
Minimum Humidity 48    
Precipitation  
Precipitation 0.00 in - - ()
Sea Level Pressure  
Sea Level Pressure 30.22 in    
Wind  
Wind Speed 3 mph (SE)    
Max Wind Speed 9 mph    
Max Gust Speed -    
Visibility 10 miles    
Events      
Averages and records for this station are not official NWS values.
T = Trace of Precipitation, MM = Missing Value Source: NWS Daily Summary

Daily Weather History Graph

Daily Weather History Graph

Search for Another Location

Airport:

Trip Planner

Search our weather history database for the weather conditions in past years. The results will help you decide how hot, cold, wet, or windy it might be!

Date:

Astronomy

Oct. 26, 2013 Rise Set
Actual Time 7:27 AM CDT 6:29 PM CDT
Civil Twilight 7:02 AM CDT 6:54 PM CDT
Nautical Twilight 6:33 AM CDT 7:23 PM CDT
Astronomical Twilight 6:04 AM CDT 7:52 PM CDT
Moon No Moon Rise 1:41 PM CDT (10/26)
Length of Visible Light 11h 52m
Length of Day
11h 02m
Waning Gibbous, 53% of the Moon is Illuminated
Oct 26
Waning Gibbous
Oct 26
Last Quarter
Nov 3
New
Nov 9
First Quarter
Nov 17
Full

Hourly Weather History & Observations

Time (CDT) Temp. Windchill Dew Point Humidity Pressure Visibility Wind Dir Wind Speed Gust Speed Precip Events Conditions
12:58 AM 46.4 °F - 39.4 °F 77% 30.31 in 10.0 mi Calm Calm - N/A   Clear
1:58 AM 46.8 °F - 38.8 °F 74% 30.30 in 10.0 mi South 2.3 mph - N/A   Clear
2:58 AM 45.0 °F - 38.7 °F 79% 30.28 in 10.0 mi Calm Calm - N/A   Clear
3:08 AM 44.6 °F - 39.2 °F 81% 30.26 in 8.0 mi SSE 2.3 mph - N/A   Clear
3:58 AM 44.4 °F - 39.7 °F 84% 30.26 in 8.0 mi ESE 2.3 mph - N/A   Clear
4:18 AM 42.8 °F 39.3 °F 39.2 °F 87% 30.25 in 10.0 mi SE 5.8 mph - N/A   Clear
4:58 AM 42.8 °F - 38.8 °F 86% 30.27 in 10.0 mi SE 2.3 mph - N/A   Partly Cloudy
5:58 AM 43.9 °F - 37.9 °F 80% 30.27 in 10.0 mi SE 2.3 mph - N/A   Clear
6:58 AM 44.1 °F - 38.8 °F 82% 30.27 in 10.0 mi Calm Calm - N/A   Scattered Clouds
7:58 AM 45.7 °F - 40.6 °F 83% 30.27 in 10.0 mi Calm Calm - N/A   Overcast
8:58 AM 49.6 °F - 41.4 °F 73% 30.28 in 10.0 mi ESE 2.3 mph - N/A   Overcast
9:58 AM 53.4 °F - 42.6 °F 67% 30.28 in 10.0 mi SE 5.8 mph - N/A   Mostly Cloudy
10:58 AM 58.1 °F - 43.3 °F 58% 30.28 in 10.0 mi South 5.8 mph - N/A   Overcast
11:58 AM 62.6 °F - 44.4 °F 51% 30.26 in 10.0 mi SSE 9.2 mph - N/A   Mostly Cloudy
12:58 PM 66.6 °F - 47.1 °F 50% 30.24 in 10.0 mi Variable 4.6 mph - N/A   Partly Cloudy
1:58 PM 69.4 °F - 50.5 °F 51% 30.21 in 10.0 mi Variable 4.6 mph - N/A   Partly Cloudy
2:58 PM 73.0 °F - 52.5 °F 48% 30.18 in 10.0 mi SSW 4.6 mph - N/A   Clear
3:58 PM 73.9 °F - 54.3 °F 50% 30.16 in 10.0 mi South 4.6 mph - N/A   Partly Cloudy
4:58 PM 75.0 °F - 55.2 °F 50% 30.15 in 10.0 mi South 2.3 mph - N/A   Clear
5:58 PM 72.5 °F - 55.6 °F 55% 30.13 in 10.0 mi SE 4.6 mph - N/A   Mostly Cloudy
6:58 PM 64.6 °F - 57.0 °F 76% 30.13 in 10.0 mi SSE 5.8 mph - N/A   Mostly Cloudy
7:58 PM 63.0 °F - 55.9 °F 78% 30.13 in 10.0 mi ESE 3.5 mph - N/A   Scattered Clouds
8:58 PM 59.5 °F - 54.9 °F 84% 30.13 in 10.0 mi ESE 4.6 mph - N/A   Clear
9:58 PM 60.8 °F - 54.3 °F 79% 30.12 in 10.0 mi SE 5.8 mph - N/A   Clear
10:58 PM 60.6 °F - 53.6 °F 78% 30.11 in 10.0 mi ESE 5.8 mph - N/A   Partly Cloudy
11:58 PM 59.5 °F - 53.4 °F 80% 30.10 in 10.0 mi ESE 3.5 mph - N/A   Mostly Cloudy